Regional Weather Roundup
Issued by NWS Huntsville, AL

Home | Current Version | Previous Version | Text Only | Print | Product List | Glossary On
Versions: 1 2 3 4 5 6 7 8 9 10 11 12 13 14 15 16 17 18 19 20 21 22 23 24 25 26 27
000
ASUS44 KHUN 202310
RWRHUN

WEATHER ROUNDUP FOR THE TENNESSEE VALLEY
NATIONAL WEATHER SERVICE HUNTSVILLE AL
500 PM CST MON NOV 20 2017

ALZ001>004-210000-
NORTHWEST ALABAMA

CITY           SKY/WX    TMP DP  RH WIND       PRES   REMARKS
COURTLAND HCN    N/A     48 N/A N/A SE5         N/A
RUSSELLVILLE     N/A     48 N/A N/A MISG        N/A
SHOALS AIRPORT CLEAR     48  30  49 E6        30.11F
SHOALS TVA RES   N/A     50 N/A N/A MISG        N/A
$$

ALZ005>007-016-210000-
NORTH CENTRAL ALABAMA

CITY           SKY/WX    TMP DP  RH WIND       PRES   REMARKS
CULLMAN AG STN   N/A     52 N/A N/A CALM        N/A
DECATUR AP     CLOUDY    47  33  58 E3        30.12S
HUNTSVILLE AP  CLOUDY    51  30  44 E5        30.11S
MERIDIANVILLE  CLOUDY    50  28  43 CALM      30.11F
REDSTONE ARSN  CLOUDY    51  28  42 CALM      30.10F
VINEMONT AP    FAIR      45  33  63 CALM      30.13S
$$

ALZ008>010-210000-
NORTHEAST ALABAMA

CITY           SKY/WX    TMP DP  RH WIND       PRES   REMARKS
ALBERTVILLE    CLOUDY    46  34  61 CALM      30.12R
FORT PAYNE     CLOUDY    46  28  49 CALM      30.12F
SCOTTSBORO AP  CLOUDY    48  37  66 CALM      30.13S
SCOTTSBORO HCN   N/A     46 N/A N/A MISG        N/A
VALLEY HEAD      N/A     50 N/A N/A MISG        N/A
$$

TNZ076-096-097-210000-
SOUTHEASTERN MIDDLE TENNESSEE

CITY           SKY/WX    TMP DP  RH WIND       PRES   REMARKS
TULLAHOMA      CLEAR     48  27  43 CALM      30.09F
WINCHESTER     CLEAR     50  19  29 S3        30.11F
$$

...SURROUNDING SITES...

CITY           SKY/WX    TMP DP  RH WIND       PRES   REMARKS
ATLANTA        CLOUDY    51  35  54 E8        30.14F
ANNISTON       CLOUDY    51  35  54 CALM      30.12F
BIRMINGHAM     CLOUDY    53  30  41 SE5       30.15R
CHATTANOOGA    CLOUDY    49  31  49 CALM      30.14F
CORINTH        FAIR      50  27  40 CALM      30.10S
DALTON         CLOUDY    46  34  61 CALM      30.16S
GADSDEN        CLOUDY    48  35  60 NE3       30.14S
GOLDEN TRNGL   CLOUDY    49  27  42 S6        30.13S
HALEYVILLE     FAIR      44  34  67 CALM      30.12F
JACKSON TN     CLEAR     49  26  41 S5        30.08F
MEMPHIS        PTCLDY    49  26  41 S5        30.08F
NASHVILLE      MOCLDY    49  24  37 CALM      30.10F
OXFORD MS      FAIR      46  30  53 S3        30.12R
ROME           CLOUDY    49  37  63 CALM      30.13F
SAVANNAH       CLEAR     46  32  57 CALM      30.09S
SELMER         CLEAR     45  32  61 CALM      30.08F
TUPELO         CLOUDY    48  28  46 S5        30.10F
TUSCALOOSA     CLOUDY    50  33  52 CALM      30.14R
$$

...GULF COAST WEATHER...

CITY           SKY/WX    TMP DP  RH WIND       PRES   REMARKS
GULFPORT       CLEAR     52  44  74 S3        30.13F
PASCAGOULA     CLEAR     50  45  83 CALM      30.13F
MOBILE         PTCLDY    50  38  63 CALM      30.13F
GULF SHORES    CLEAR     54  49  81 CALM      30.13S
PENSACOLA      MOCLDY    53  46  77 CALM      30.12S
DESTIN         CLEAR     56  42  59 NW3       30.13R
PANAMA CITY    CLEAR     56  42  61 NE3       30.11F
APPALACHICOLA  CLEAR     57  47  69 E5        30.11S
$$





USA.gov is the U.S. government's official web portal to all federal, state and local government web resources and services.